Simultaneous Nadir Overpasses (SNOs) Predictions

Prediction of SNOs between NOAA-20 and NOAA-19 Satellite Orbit:

Table of predicted SNOs for the next 14.0 days since TLE Epoch: 7/17/2021
Index Date (NOAA-20) Time (NOAA-20) Lat,Lon (NOAA-20) SZA (NOAA-20 ) Date (NOAA-19) Time (NOAA-19) Lat,Lon (NOAA-19) SZA (NOAA-19 ) Distance(km) Time Diff (sec)
1 07/26/2021 08:29:44 -77.98,-152.08 120.08 07/26/2021 08:28:32 -77.98,-153.36 119.92 29.54 72
2 07/26/2021 09:20:32 78.09, 14.67 60.09 07/26/2021 09:19:23 78.10, 14.62 60.13 1.57 69
3 07/26/2021 10:11:17 -78.11,-178.11 119.89 07/26/2021 10:10:29 -78.10,-178.13 119.87 0.85 48
4 07/26/2021 11:02:02 78.09, -10.72 60.11 07/26/2021 11:01:23 78.11, -10.82 60.15 2.71 39
5 07/26/2021 11:52:47 -78.11, 156.50 119.86 07/26/2021 11:52:29 -78.11, 156.43 119.85 1.40 18
6 07/26/2021 12:43:33 78.14, -36.33 60.19 07/26/2021 12:43:23 78.12, -36.25 60.16 2.80 10
7 07/26/2021 13:34:17 -78.11, 131.10 119.84 07/26/2021 13:34:29 -78.12, 131.00 119.83 2.41 12
8 07/26/2021 14:25:03 78.14, -61.73 60.21 07/26/2021 14:25:23 78.13, -61.69 60.18 1.69 20
9 07/26/2021 15:15:48 -78.16, 105.49 119.77 07/26/2021 15:16:29 -78.13, 105.57 119.81 3.33 41
10 07/26/2021 16:06:33 78.15, -87.13 60.23 07/26/2021 16:07:23 78.14, -87.12 60.20 0.66 50
11 07/26/2021 16:57:18 -78.16, 80.09 119.74 07/26/2021 16:58:29 -78.14, 80.13 119.79 2.26 71



Historial Predications of SNOs between NOAA-20 and NOAA-19
